Regional Weather Roundup
Issued by NWS

Home | Current Version | Previous Version | Text Only | Print | Product List | Glossary On
Versions: 1 2 3 4 5 6 7 8 9 10 11 12 13 14 15 16 17 18 19 20 21 22 23 24 25 26 27 28 29 30 31 32 33 34 35 36 37 38 39 40 41 42 43 44 45 46 47 48 49 50
000
ASUS43 KMPX 040310
RWRMN
WEATHER ROUNDUP FOR MINNESOTA
NATIONAL WEATHER SERVICE TWIN CITIES/CHANHASSEN MN
1000 PM CDT SUN MAY 03 2015


NOTE: "FAIR" INDICATES FEW OR NO CLOUDS BELOW 12,000 FEET WITH NO
SIGNIFICANT WEATHER AND/OR OBSTRUCTIONS TO VISIBILITY. N/A MEANS
CURRENT SKY AND/OR WEATHER CONDITIONS ARE NOT AVAILABLE.

MNZ060>063-068>070-040400-
   Twin Cities Metro

CITY           SKY/WX    TMP DP  RH WIND       PRES   REMARKS
TWIN CITIES    CLOUDY    63  44  50 NE10      29.88R
ST PAUL        CLOUDY    62  46  55 NE9       29.89R
CRYSTAL        CLOUDY    62  44  51 N7        29.89R
BLAINE         CLOUDY    61  46  59 N5        29.90R
LAKEVILLE      CLOUDY    57  48  72 E5        29.88R
EDEN PRAIRIE   CLOUDY    63  43  48 NE6       29.88R
SOUTH ST PAUL  CLOUDY    62  47  56 CALM      29.88R
LAKE ELMO      FAIR      57  50  77 NE6       29.89R
$$
MNZ001>005-007-008-013>017-022>024-027-028-040400-
   Northwest Minnesota

CITY           SKY/WX    TMP DP  RH WIND       PRES   REMARKS
BEMIDJI        CLEAR     53  27  37 N6        29.94R
HALLOCK        CLEAR     54  28  37 N3        29.98R
ROSEAU         CLEAR     52  36  54 NW6       29.98R
WARROAD        CLEAR     50  37  62 N6        29.98R
THIEF RVR FALL CLEAR     54  34  47 N10       29.98R
CROOKSTON      CLEAR     52  25  35 N8        29.98R
DETROIT LAKES  CLEAR     55  25  30 N7        29.96R
MOORHEAD       CLEAR     55  21  26 NW9       29.97R
PARK RAPIDS    CLEAR     52  26  36 NW7       29.93R
MAHNOMEN       FAIR      49  23  35 NW10      29.96R
$$
MNZ006-009>011-018-025>026-040400-
   North Central Minnesota

CITY           SKY/WX    TMP DP  RH WIND       PRES   REMARKS
BAUDETTE       CLEAR     48  37  65 N5        29.97R
FLAG ISLAND    CLEAR     52  39  62 N14       29.96R
INTL FALLS     CLEAR     51  34  52 NW10      29.94R
WASKISH        CLEAR     54  36  50 N7        29.96R
BIG FORK       CLEAR     55  32  41 N8        29.94R
LONGVILLE      CLEAR     50  32  50 CALM      29.92R
GRAND RAPIDS   CLEAR     52  27  37 N7        29.91R
CRANE LAKE     CLEAR     48  30  49 CALM      29.92R
ORR            CLEAR     55  28  35 NW12      29.90R
COOK           CLEAR     54  28  37 NW5       29.91R
WALKER         FAIR      56  25  30 N5        29.93R
$$
MNZ012-019>021-037-040400-
   Northeast Minnesota

CITY           SKY/WX    TMP DP  RH WIND       PRES   REMARKS
DULUTH         PTCLDY    57  33  40 NW7       29.90R
ELY            CLEAR     52  28  40 NW5       29.89R
HIBBING        CLEAR     54  24  31 NW7       29.89R
EVELETH        CLEAR     52  32  46 CALM      29.90R
DULUTH HARBOR  CLEAR     55  48  76 S5        29.90R
TWO HARBORS    CLEAR     57  37  47 CALM      29.87R
SILVER BAY     CLEAR     54  34  47 CALM      29.86R
GRAND MARAIS     N/A     56  31  38 NW5       29.85R
G MARAIS ARPRT PTCLDY    48  25  40 NW6       29.88S
$$
MNZ029>031-032-039>041-046>048-054>057-064-040400-
   West Central Minnesota

CITY           SKY/WX    TMP DP  RH WIND       PRES   REMARKS
FERGUS FALLS   CLEAR     55  27  33 N12       29.96R
WHEATON        CLEAR     55  25  30 NW10      29.98R
MORRIS         CLEAR     54  30  40 NW9       29.93R
ALEXANDRIA     CLEAR     55  32  41 N5        29.94R
ELBOW LAKE     FAIR      58  29  32 N18       29.94R
WADENA         CLEAR     52  28  40 NW6       29.93R
GLENWOOD       CLEAR     55  30  38 NW6       29.93R
APPLETON       FAIR      55  28  35 NW5       29.94R
BENSON         FAIR      55  27  33 CALM      29.94R
ORTONVILLE     CLEAR     55  28  35 NW7       29.94R
MADISON        FAIR      55  28  35 NW6       29.95R
WILLMAR        FAIR      57  32  38 N3        29.96R
$$
MNZ033>034-036-042>043-049>051-058-059-040400-
   Central Minnesota

CITY           SKY/WX    TMP DP  RH WIND       PRES   REMARKS
ST CLOUD       FAIR      56  40  55 N3        29.91R
SAUK CENTRE    FAIR      56  30  37 NW5       29.93R
PAYNESVILLE    CLEAR     55  32  42 CALM      29.94R
AITKIN         CLEAR     46  27  46 CALM      29.90R
PINE RIVER     CLEAR     54  34  47 CALM      29.95S
BRAINERD       CLEAR     52  38  58 CALM      29.92R
STAPLES        FAIR      52  30  43 NW6       29.92R
LONG PRAIRIE   FAIR      54  30  40 CALM      29.93R
LITTLE FALLS   CLEAR     57  28  33 CALM      29.93R
LITCHFIELD     PTCLDY    61  39  44 N3        29.94R
BUFFALO        MOCLDY    58  44  60 CALM      29.92R
MAPLE LAKE     PTCLDY    53  48  83 CALM      29.92R
$$
MNZ037-044-045-052-053-040400-
   East Central Minnesota

CITY           SKY/WX    TMP DP  RH WIND       PRES   REMARKS
PRINCETON      MOCLDY    57  43  58 NW7       29.91R
MORA           CLEAR     55  41  58 N3        29.92S
CAMBRIDGE      PTCLDY    59  45  58 CALM      29.89R
RUSH CITY      PTCLDY    53  44  71 CALM      29.90S
MOOSE LAKE     CLEAR     52  32  46 CALM      29.91R
HINCKLEY       FAIR      50  43  76 N6        29.91R
CLOQUET        CLEAR     55  25  30 CALM      29.91R
MCGREGOR       CLEAR     52  36  54 CALM      29.92R
$$
MNZ071>073-080-081-089-090-097-098-040400-
   Southwest Minnesota

CITY           SKY/WX    TMP DP  RH WIND       PRES   REMARKS
MONTEVIDEO     CLEAR     57  28  33 N7        29.96R
GRANITE FALLS  CLEAR     58  28  31 N7        29.98R
CANBY          CLEAR     55  28  34 NW6       29.97R
MARSHALL       CLEAR     57  27  30 N9        29.97R
REDWOOD FALLS  CLEAR     63  34  33 N9        29.95R
OLIVIA         CLEAR     59  32  36 N9        29.94R
PIPESTONE      CLEAR     61  28  29 NE12G18   29.95R
WINDOM         PTCLDY    63  39  42 NE7       29.95R
WORTHINGTON    PTCLDY    61  37  41 NE12      29.95R
JACKSON        MOCLDY    63  39  42 VRB8      29.94R
TRACY          CLEAR     61  29  29 N12       29.97R
SLAYTON        CLEAR     59  29  31 N14       29.97R
$$
MNZ065>067-074>077-082>085-091>093-040400-
   South Central Minnesota

CITY           SKY/WX    TMP DP  RH WIND       PRES   REMARKS
MANKATO          N/A    N/A N/A N/A MISG        N/A
NEW ULM        PTCLDY    59  41  51 NW5       29.94R
ST JAMES       MOCLDY    64  37  36 N6        29.94R
FAIRMONT       MOCLDY    64  43  45 N13       29.91R
GLENCOE        MOCLDY    61  45  57 CALM      29.92R
FARIBAULT      CLOUDY    59  52  77 NE3       29.90R
OWATONNA       CLOUDY    59  50  72 N8        29.89R
WASECA         CLOUDY    55  48  76 N8        29.91R
ALBERT LEA     CLOUDY    63  52  67 NE9       29.87R
$$
MNZ078>079-086>088-094>096-040400-
   Southeast Minnesota

CITY           SKY/WX    TMP DP  RH WIND       PRES   REMARKS
ROCHESTER      LGT RAIN  59  55  87 NE21G26   29.86F
RED WING       CLOUDY    61  54  77 SE3       29.87R
STANTON        CLOUDY    58  52  78 SE3       29.88R
DODGE CENTER   CLOUDY    61  54  77 E15       29.87R
WINONA         RAIN      61  59  94 CALM      29.92R
AUSTIN         LGT RAIN  61  54  77 NE14G21   29.85F
PRESTON        TSTM      59  57  94 NE9       29.88R
$$
ABBREVIATIONS USED IN REMARKS
   TC - TEMPERATURES IN CELSIUS
  WCI - WIND CHILL INDEX
   HX - HEAT INDEX
  VSB - VISIBILITY
$$



USA.gov is the U.S. government's official web portal to all federal, state and local government web resources and services.